Location: *
(37.5583°N, 15.0806°E)
Time: 01:46:00
(UTC+00:00)

Daily predictions for brighter satellites

Satellite Brightness Start Highest point End
(mag) Time Altitude Azimuth Time Altitude Azimuth Time Altitude Azimuth
GEOS 3 Rocket 4.3 03:03:53 10° NE 03:09:05 51° ESE 03:09:20 50° SE
USA 229 DEB 4.4 03:17:18 42° SSW 03:17:18 42° SSW 03:22:27 10° SSE
USA 229 4.4 03:17:19 43° SSW 03:17:19 43° SSW 03:22:32 10° SSE
Cosmos 2221 3.7 03:19:42 41° E 03:19:42 41° E 03:23:25 10° NNE
NOSS 3-1 (A) 4.0 03:19:35 48° NW 03:22:13 78° WSW 03:31:00 10° SSE
USA 267 3.1 03:19:57 10° SE 03:26:26 68° SW 03:26:50 66° WSW
STARLINK-1101 4.4 03:33:29 48° ENE 03:33:29 48° ENE 03:36:35 10° NE
STARLINK-1119 4.2 03:37:49 52° ENE 03:37:49 52° ENE 03:40:58 10° NE
STARLINK-1102 4.2 03:38:09 55° ENE 03:38:09 55° ENE 03:41:27 10° NE
STARLINK-1114 4.0 03:42:13 59° NE 03:42:13 59° NE 03:45:34 10° NE
STARLINK-1111 3.9 03:42:50 63° NE 03:42:50 63° NE 03:46:20 10° NE
Cosmos 1943 Rocket 2.3 03:37:57 16° NNW 03:42:21 72° ENE 03:47:50 10° SSE
Meteor 1-31 Rocket 4.5 03:39:42 10° NNE 03:41:21 24° N 03:41:21 24° N
STARLINK-1130 (DARKSAT) 3.8 03:46:25 65° NE 03:46:25 65° NE 03:49:55 10° NE
Cosmos 1605 Rocket 3.8 03:40:16 10° NNW 03:46:23 64° W 03:52:24 10° S
STARLINK-1073 3.7 03:47:28 71° NE 03:47:28 71° NE 03:51:10 10° NE
Lacrosse 5 2.3 03:45:19 35° NNW 03:47:17 59° NE 03:52:17 10° SE
CZ-4B R/B 3.7 03:45:52 10° NNE 03:48:08 36° NNE 03:48:08 36° NNE
STARLINK-1084 3.6 03:51:13 70° NNE 03:51:13 70° NNE 03:54:55 10° NE
STARLINK-1121 3.5 03:52:09 74° N 03:52:09 74° N 03:56:02 10° NE
STARLINK-1106 3.5 03:56:57 71° NW 03:56:57 71° NW 04:01:01 10° NE
ALOS 2.9 03:54:02 10° NNE 03:58:38 57° E 04:03:13 10° S
SL-16 R/B 4.0 04:01:35 16° NNW 04:01:35 16° NNW 04:03:39 10° N
STARLINK-1112 3.5 04:01:40 63° NW 04:01:50 64° NW 04:05:55 10° NE
Cosmos 1153 Rocket 4.3 03:56:28 10° N 04:02:35 75° W 04:08:40 10° S
CZ-2C R/B 3.3 03:58:05 10° N 04:01:40 32° NW 04:01:40 32° NW
Cosmos 1869 3.2 03:58:50 10° S 04:02:50 88° E 04:06:49 10° N
FENGYUN 3A 4.0 04:00:12 10° NNE 04:05:37 67° E 04:11:01 10° S
SKYMED 2 3.9 04:04:35 10° SSE 04:08:52 65° ENE 04:13:10 10° N
Cosmos 2084 3.4 04:07:27 32° SW 04:09:31 84° WNW 04:14:01 10° NNE
Cosmos 1727 Rocket 4.0 04:04:20 10° SSW 04:10:21 52° W 04:16:22 10° N
Cosmos 1633 3.3 04:09:05 10° N 04:12:39 52° E 04:16:12 10° SSE
H-2A R/B 2.9 04:09:50 10° N 04:14:01 42° WNW 04:15:05 36° WSW
Cosmos 2369 Rocket 2.1 04:08:43 10° NNW 04:14:27 79° WSW 04:20:08 10° SSE
Meteor PRIRODA 3.5 04:11:05 10° N 04:14:43 60° WNW 04:16:33 26° SSW
Cosmos 1603 4.0 04:13:18 28° WSW 04:15:51 45° WNW 04:21:18 10° N
Cosmos 1023 Rocket 4.4 04:10:51 10° SSW 04:16:05 72° WNW 04:21:23 10° NNE
Cosmos 1500 Rocket 3.5 04:12:55 10° NNW 04:17:16 56° W 04:21:32 10° S
Cosmos 1943 3.2 04:15:34 17° SW 04:19:45 55° WNW 04:25:17 10° NNE
Cosmos 2173 Rocket 4.0 04:14:29 10° N 04:20:47 87° E 04:26:58 10° S
Cosmos 1656 Rocket 4.4 04:17:32 10° NNW 04:23:07 55° ENE 04:28:40 10° SE
DELTA 2 R/B (1) 3.6 04:20:04 25° WSW 04:23:24 76° SSE 04:28:58 10° ENE
Aureole 2 Rocket 2.0 04:25:19 23° NNW 04:27:05 70° WSW 04:30:18 10° S
CZ-4B DEB 4.2 04:24:12 10° NNE 04:29:42 86° ESE 04:35:09 10° SSW
Cosmos 1743 Rocket 4.0 04:25:48 10° NNW 04:29:46 36° W 04:33:43 10° SSW
Cosmos 2263 4.1 04:25:26 10° NNW 04:31:07 80° WSW 04:36:44 10° SSE
Okean O Rocket 2.4 04:28:31 10° NNE 04:32:48 55° E 04:37:03 10° S
Shenzhou-11 Module 2.8 04:35:31 27° NW 04:36:02 29° N 04:38:25 10° NE
CZ-4B R/B 3.7 04:31:03 10° NNE 04:36:18 60° ESE 04:41:30 10° S
Cosmos 1140 Rocket 3.7 04:32:26 10° SW 04:37:27 46° WNW 04:42:31 10° N
Cosmos 2100 Rocket 3.9 04:31:45 10° NNW 04:37:51 63° W 04:43:54 10° S
SJ-12 4.1 04:33:53 10° N 04:37:53 48° WNW 04:41:51 10° SSW
Cosmos 1954 Rocket 4.0 04:32:48 10° SSW 04:38:05 70° WNW 04:43:25 10° NNE
STARLINK-1098 4.4 04:36:27 24° WNW 04:38:06 33° NW 04:41:50 10° NNE
Cosmos 407 Rocket 4.2 04:35:15 15° WSW 04:39:03 32° WNW 04:43:47 10° N
MOS 1-B 4.3 04:38:25 10° N 04:44:11 67° WNW 04:49:56 10° SSW
Cosmos 1862 3.4 04:41:34 10° N 04:45:32 80° E 04:49:29 10° S
Atlas Centaur 2 4.2 04:38:33 10° SW 04:46:06 37° SSE 04:53:36 10° E
USA 116 3.1 04:43:19 10° SSE 04:46:31 87° SW 04:49:39 10° NNW
Helios 1A Rocket 3.9 04:43:06 10° NNE 04:47:09 51° E 04:51:08 10° S
Cosmos 1459 Rocket 4.1 04:42:27 10° NNW 04:48:30 56° W 04:54:36 10° SSW
GPS 2-05 Rocket1 4.2 04:47:12 10° SSW 04:48:58 19° SSE 04:50:44 10° ESE
Cosmos 1484 Rocket 4.0 04:46:08 10° NNW 04:49:12 22° WNW 04:52:15 10° WSW
Cosmos 921 Rocket 3.2 04:45:04 10° NNW 04:49:18 47° W 04:53:25 10° S
BREEZE M DEB (TANK) 3.9 04:46:29 10° WNW 04:54:46 32° WSW 04:57:56 10° S
Cosmos 2061 Rocket 3.9 04:49:02 10° N 04:55:16 72° W 05:01:25 10° S
Cosmos 1340 4.5 04:52:20 10° N 04:55:49 35° ENE 04:59:16 10° SE
COSMO-SKYMED 1 3.2 04:53:01 10° SSW 04:56:57 34° W 05:00:55 10° NNW
Cosmos 2221 4.1 04:56:38 14° W 04:57:09 14° WNW 04:59:22 10° NW
Cosmos 2123 Rocket 4.0 04:53:35 10° SSW 04:59:52 68° W 05:06:09 10° N
Cosmos 1725 Rocket 4.0 04:55:09 10° N 05:01:26 83° W 05:07:44 10° S
Cosmos 1633 Rocket 3.2 04:59:23 10° N 05:03:47 81° E 05:08:10 10° S
Cosmos 1346 Rocket 4.4 05:03:32 10° N 05:07:12 38° ENE 05:10:50 10° SSE
Cosmos 1666 Rocket 3.5 05:02:51 10° N 05:07:16 74° W 05:11:37 10° S
Iridium 51 4.2 05:04:15 10° S 05:08:16 90° E 05:11:59 10° N
Cosmos 1741 Rocket 4.1 05:03:59 10° SSW 05:09:12 85° ESE 05:14:30 10° NNE
PAYLOAD B 4.5 05:04:47 10° N 05:10:07 48° WNW 05:15:24 10° SW
Cosmos 1238 Rocket 3.9 05:08:51 10° NNW 05:14:17 42° W 05:18:51 10° SSW
Cosmos 1802 Rocket 4.4 05:08:25 10° NNW 05:14:26 43° W 05:20:23 10° SSW
BREEZE-M DEB (TANK) 3.6 05:10:57 10° WSW 05:14:29 54° NNW 05:20:54 10° NE
Envisat 4.3 05:10:05 10° NNE 05:14:58 46° E 05:19:49 10° S
BREEZE-M DEB (TANK) 3.4 05:10:01 10° WSW 05:15:18 37° NW 05:17:46 10° NE
Cosmos 1933 3.7 05:11:25 10° S 05:15:29 72° E 05:19:33 10° NNE
NOSS 3-3 (A) 4.1 05:13:00 10° SW 05:18:40 54° NW 05:24:58 10° NNE
NOSS 3-3 (C) 4.0 05:13:04 10° SW 05:18:45 55° NW 05:25:06 10° NNE
